Location: Bouchavesnes-Bergen
(49.9859°N, 2.9203°E)
Time: 10:17:38
(UTC+00:00)

Cosmos 2315 Rocket - Pass Details

Date: 09 March 2021
Orbit: 967 x 1001 km, 82.9° (Epoch: 12 April)

Event Time Altitude Azimuth Distance (km) Brightness Sun altitude
Exits shadow 04:34:41 - 205° (SSW) 2,823 6.1 -16.8°
Reaches altitude 10° 04:35:00 10° 206° (SSW) 2,705 6.0 -16.8°
Maximum altitude 04:41:05 57° 284° (WNW) 1,135 4.0 -15.8°
Drops below altitude 10° 04:47:12 10° 3° (N) 2,722 6.5 -14.8°
Sets 04:49:47 0° 8° (N) 3,676 7.3 -14.4°
